Location: Barrio La Cañada
(40.5999°N, 4.4959°W)
Time: 01:56:57
(UTC+00:00)

Daily predictions for brighter satellites

Satellite Brightness Start Highest point End
(mag) Time Altitude Azimuth Time Altitude Azimuth Time Altitude Azimuth
Cosmos 2219 Rocket 3.9 00:02:22 10° N 00:07:07 27° NE 00:09:48 19° E
Cosmos-2242 4.0 00:04:44 10° NNW 00:08:00 39° WNW 00:08:00 39° WNW
ERS-2 3.6 00:09:50 10° NNE 00:12:02 35° N 00:12:02 35° N
ATLAS 5 CENTAUR R/B 4.1 00:11:23 10° WNW 00:13:34 14° NW 00:15:53 10° N
ALOS 2 3.5 00:17:12 41° WNW 00:17:12 41° WNW 00:20:38 10° NNW
Cosmos 1605 Rocket 4.4 00:15:25 10° N 00:21:44 56° E 00:23:03 48° ESE
Meteor 2-11 Rocket 4.3 00:20:38 10° N 00:26:47 83° E 00:27:34 69° SSE
ISS -1.0 00:34:35 16° NE 00:34:35 16° NE 00:35:22 10° NE
ADEOS Rocket 3.8 00:32:39 44° SW 00:34:12 50° W 00:41:38 10° NNW
Cosmos 1953 Rocket 4.2 00:35:52 49° NW 00:35:52 49° NW 00:39:40 10° N
Cosmos 972 Rocket 4.0 00:32:47 10° NNW 00:38:05 86° WSW 00:38:23 81° S
Cosmos 2322 Rocket 2.6 00:32:54 10° NW 00:38:11 50° W 00:38:11 50° W
PSLV R/B 3.9 00:36:16 10° N 00:40:46 66° NW 00:40:46 66° NW
NOSS 3-2 (A) 3.7 00:42:18 44° ESE 00:42:18 44° ESE 00:47:41 10° NE
Cosmos 1340 Rocket 4.4 00:48:35 29° NW 00:48:35 29° NW 00:51:23 10° N
SJ 16-02 3.2 00:46:54 10° NW 00:49:15 22° WNW 00:49:15 22° WNW
Cosmos 2151 3.7 00:51:31 50° ENE 00:51:31 50° ENE 00:55:03 10° NNE
Cosmos 2285 Rocket 4.2 00:53:03 53° SE 00:54:02 59° ESE 01:00:20 10° NNE
Cosmos 2333 Rocket 2.2 00:48:15 10° NNW 00:54:02 82° ENE 00:54:50 67° SE
Gbstr 26 Del rocket 4.5 00:53:35 26° WNW 00:55:27 38° NNW 01:00:23 10° NE
CENTAUR R/B 2.5 00:56:43 54° SE 00:57:03 54° ESE 01:03:30 10° NE
Cosmos 1898 Rocket 4.4 00:54:20 10° N 00:59:17 42° ENE 01:00:41 35° ESE
Cosmos 1812 3.9 00:58:42 10° N 01:01:39 39° NE 01:01:39 39° NE
Meteor 2-3 Rocket 3.5 01:03:14 73° SW 01:03:44 81° W 01:09:21 10° N
Cosmos 2221 3.5 01:01:46 10° NNW 01:05:05 40° WNW 01:05:05 40° WNW
BREEZE-M DEB (TANK) 4.3 01:05:55 29° NW 01:06:52 35° N 01:12:52 10° ENE
Cosmos 1842 Rocket 4.1 01:04:38 10° NNW 01:08:22 52° NW 01:08:22 52° NW
Cosmos 2227 Rocket 4.1 01:11:32 16° ESE 01:12:45 17° E 01:16:18 10° ENE
Cosmos 1782 3.4 01:09:36 10° N 01:12:43 53° N 01:12:43 53° N
Cosmos 2360 Rocket 2.9 01:08:54 10° NW 01:13:44 39° W 01:13:44 39° W
Cosmos 1153 Rocket 4.4 01:10:17 10° N 01:16:40 89° W 01:18:00 59° S
Resurs 1-4 Rocket 3.1 01:13:17 10° NNE 01:18:08 34° E 01:19:05 32° ESE
Cosmos 2333 4.2 01:13:18 10° NNW 01:19:00 61° WSW 01:19:15 60° WSW
CZ-2D R/B 2.9 01:22:06 10° NNE 01:27:00 39° E 01:27:58 36° SE
NOSS 3-2 (C) 3.4 01:28:59 50° SE 01:29:34 53° ESE 01:35:28 10° NE
COSMOS 2455 4.4 01:24:32 10° NNW 01:29:55 32° NE 01:35:15 10° ESE
BREEZE-M DEB (TANK) 3.2 01:24:13 10° WNW 01:31:39 73° W 01:31:39 73° W
SL-4 R/B 4.5 01:34:26 10° NW 01:36:58 18° NNW 01:39:37 10° NNE
Cosmos 1727 Rocket 4.2 01:35:56 48° SW 01:37:21 59° W 01:43:35 10° N
USA 234 3.8 01:39:20 37° WSW 01:39:20 37° WSW 01:44:44 10° WNW
SL-16 R/B 3.4 01:34:43 18° SE 01:39:05 45° ENE 01:44:59 10° N
Cosmos 2237 Rocket 3.6 01:33:56 10° N 01:39:07 36° ENE 01:44:16 10° SE
COSMOS 2428 2.6 01:34:59 10° NNW 01:40:43 84° WSW 01:42:02 55° SSE
Cosmos 1459 Rocket 3.9 01:35:04 10° N 01:41:09 81° E 01:43:02 47° SSE
Cosmos 2297 Rocket 2.7 01:40:42 41° SE 01:41:52 47° ESE 01:47:15 10° NE
Cosmos 1000 Rocket 4.4 01:40:58 54° SSW 01:42:30 85° W 01:48:40 10° N
Cosmos 1763 Rocket 4.4 01:41:41 34° W 01:42:40 38° WNW 01:47:36 10° N
USA 238 DEB 3.5 01:45:54 50° S 01:47:40 73° ESE 01:54:23 10° NE
USA 238 3.5 01:46:03 50° S 01:47:48 73° ESE 01:54:32 10° NE
ADEOS II 3.3 01:43:28 10° NNE 01:48:14 34° E 01:50:00 27° SE
Cosmos 372 Rocket 4.3 01:45:03 10° NNW 01:50:15 64° ENE 01:52:20 35° SE
Cosmos 2219 Rocket 2.5 01:45:51 10° NW 01:51:15 46° WSW 01:51:28 46° WSW
Cosmos 841 Rocket 3.4 01:51:22 62° SW 01:52:10 76° WNW 01:57:21 10° NNE
Cosmos 2322 3.9 01:48:58 10° NW 01:54:22 47° WSW 01:54:41 47° WSW
Thor Agena Rocket 3.5 01:49:34 10° N 01:54:43 67° WNW 01:55:38 55° SW
Cosmos 1184 Rocket 4.2 01:53:32 10° N 01:55:25 34° N 01:55:25 34° N
Okean 3 Rocket 4.2 01:58:09 43° SE 01:59:04 50° E 02:03:28 10° NNE
Cosmos 2100 Rocket 4.0 01:54:13 10° NNW 02:00:32 65° W 02:02:26 45° SSW
Cosmos 858 Rocket 4.3 01:57:21 10° NNW 02:02:35 81° WSW 02:03:53 52° S
SL-24 DEB 4.4 02:03:40 51° W 02:03:49 51° W 02:08:18 10° NNW
Cosmos 2123 Rocket 3.9 02:03:27 43° S 02:05:42 89° W 02:12:03 10° N
Cosmos 2173 Rocket 4.1 01:59:49 10° NNW 02:06:06 63° W 02:08:07 43° SSW
Cosmos 1725 Rocket 4.0 02:00:59 10° N 02:07:11 78° E 02:10:14 32° SSE
ISS -1.1 02:07:28 13° NW 02:09:13 18° NNW 02:11:38 10° NNE
IDEFIX/ARIANE 42P 3.1 02:10:15 10° NNE 02:15:20 52° E 02:17:27 32° SSE
Geosat 4.1 02:14:58 49° SW 02:15:33 51° WSW 02:20:27 10° NW
Meteor 1-27 Rocket 4.2 02:10:06 10° N 02:15:36 55° ENE 02:19:21 20° SSE
Cosmos 2016 Rocket 3.9 02:14:58 10° N 02:21:05 74° W 02:23:41 36° S
Cosmos 1356 Rocket 3.2 02:25:54 63° WSW 02:26:19 69° W 02:30:18 10° N
NPP 3.8 02:25:46 10° N 02:31:06 63° WNW 02:33:04 38° SW
MSX 4.2 02:27:58 10° NNE 02:33:42 61° ESE 02:37:00 26° S
Cosmos 1340 3.4 02:30:20 10° NNW 02:33:25 36° W 02:33:25 36° W
Lacrosse 4 Rocket 3.9 02:31:43 10° N 02:34:51 21° NE 02:38:01 10° ESE
SAR-Lupe-2 3.6 02:32:36 10° NNE 02:36:11 75° ESE 02:36:50 56° SSE
Cosmos 1151 Rocket 3.6 02:33:21 10° NNW 02:37:27 40° W 02:37:55 38° WSW
Cosmos 2333 Rocket 4.2 02:34:57 10° WNW 02:36:48 13° W 02:36:48 13° W
Cosmos 1802 Rocket 4.4 02:32:02 10° NNW 02:37:56 45° W 02:40:19 32° SW
IRS-1D 4.3 02:34:16 10° NNE 02:39:01 43° E 02:42:03 20° SSE
Cosmos 1980 3.6 02:35:47 10° NNW 02:41:26 69° WSW 02:45:08 22° S
Cosmos 1515 3.5 02:38:05 10° N 02:41:53 84° W 02:42:52 48° S
ATLAS CENTAUR R/B 3.9 02:40:31 11° SSE 02:43:18 17° ESE 02:46:22 10° ENE
AQUA 4.0 02:40:40 10° N 02:45:20 57° WNW 02:47:03 36° SW
Cosmos 2061 Rocket 4.2 02:39:57 10° NNW 02:46:14 56° W 02:49:31 28° SSW
Cosmos 1328 Rocket 3.8 02:43:19 10° NNW 02:47:35 51° W 02:48:43 39° SW
CENTAUR R/B 3.9 02:43:52 15° W 02:48:05 31° NW 02:54:18 10° NNE
Cosmos 1400 Rocket 2.7 02:49:41 41° SSW 02:51:00 86° W 02:55:02 10° N
NOSS 0 Rocket 4.5 02:50:21 10° NW 02:55:57 37° WSW 02:58:23 27° SSW
MOS 1 Rocket 4.2 02:54:35 30° SW 02:56:07 37° W 03:01:01 10° NNW
Cosmos 2227 Rocket 2.3 02:53:21 30° SW 02:56:11 64° WNW 03:01:50 10° NNE
Resurs 1-4 Rocket 3.3 02:53:14 10° N 02:57:49 30° WNW 03:00:09 21° WSW
SL-16 R/B 3.1 02:52:27 10° NNW 02:58:00 51° ENE 03:03:31 10° SE
OE (NEXTSAT) 4.3 02:57:51 41° W 02:58:49 69° NNW 03:02:06 10° ENE
Cosmos 1515 Rocket 3.4 02:55:53 10° NNW 03:00:16 74° W 03:02:40 26° S
Meteor 1-28 Rocket 3.4 03:02:26 37° SW 03:03:18 46° W 03:06:54 10° NNW
Cosmos 2082 3.9 03:00:38 22° S 03:04:16 68° ESE 03:09:51 10° NNE
OAO 3 Rocket 3.8 03:05:06 28° SW 03:06:43 36° SSW 03:11:13 10° SE
CZ-2D R/B 3.4 03:02:35 10° N 03:06:49 26° WNW 03:09:17 18° WSW
Sich 1 4.0 03:03:15 13° SSE 03:06:52 42° E 03:10:54 10° NNE
Cosmos 1544 4.5 03:04:22 13° SSE 03:07:03 33° E 03:10:15 10° NNE
Cosmos 2263 Rocket 3.4 03:03:16 11° SSE 03:08:01 36° ESE 03:13:03 10° NE
Cosmos 1805 Rocket 4.0 03:06:46 17° S 03:10:06 59° E 03:14:26 10° NNE
Cosmos 1602 4.2 03:11:20 30° SW 03:12:35 41° WNW 03:16:12 10° N
Cosmos 1666 2.6 03:11:10 26° S 03:13:11 87° E 03:16:56 10° N
Cosmos 1743 Rocket 3.5 03:11:00 23° S 03:13:45 86° W 03:18:10 10° N
COSMOS 2455 3.2 03:10:18 10° NW 03:15:57 44° WSW 03:21:34 10° S
Helios 1B rocket 3.6 03:12:19 10° NNE 03:16:11 39° E 03:20:02 10° SSE
EO 1 Del DPAF 3.4 03:15:01 10° N 03:18:21 46° WNW 03:19:45 28° SW
Meteor 1-25 Rocket 4.5 03:17:06 21° SSW 03:20:58 58° WNW 03:26:44 10° N
SL-16 R/B 3.4 03:19:48 20° SW 03:22:47 29° W 03:28:09 10° NW
Cosmos 2237 Rocket 2.9 03:18:06 10° NW 03:23:04 32° WSW 03:26:23 18° SSW
Meteor 2-4 Rocket 4.4 03:17:42 10° N 03:23:13 56° ENE 03:28:52 10° SSE
ALOS 3.3 03:18:53 10° NNE 03:23:21 42° E 03:27:45 10° S
ATLAS 3B R/B 4.3 03:19:18 10° SSE 03:24:25 25° ESE 03:29:44 10° ENE
Cosmos 1500 3.9 03:23:01 25° SW 03:24:33 35° WNW 03:28:02 10° N
Cosmos 1408 Rocket 4.4 03:22:54 22° WSW 03:24:51 33° WNW 03:28:45 10° NNW
Cosmos 332 Rocket 4.4 03:20:10 10° NNW 03:25:02 61° ENE 03:29:53 10° SSE
Cosmos 2297 Rocket 3.6 03:22:30 14° WSW 03:26:07 26° NW 03:30:47 10° N
Cosmos 2346 Rocket 4.5 03:21:13 12° S 03:26:52 88° E 03:33:04 10° N
Cosmos 2219 3.9 03:23:15 19° WSW 03:26:52 41° WNW 03:32:11 10° N
ADEOS II 3.2 03:23:16 10° N 03:27:47 30° WNW 03:30:56 17° WSW
Cosmos 1346 Rocket 2.6 03:25:46 10° NNW 03:29:40 77° W 03:33:33 10° S
SL-19 R/B 4.1 03:26:12 10° NNE 03:31:27 85° ESE 03:36:16 12° SSW
Cosmos 921 Rocket 3.2 03:28:31 15° S 03:32:12 77° ESE 03:36:39 10° NNE
Cosmos 2228 Rocket 3.3 03:27:58 10° N 03:32:26 73° E 03:36:55 10° SSE
Cosmos 1125 Rocket 3.5 03:27:30 10° NNW 03:32:48 69° WSW 03:38:04 10° S
Cosmos 405 3.6 03:30:18 11° S 03:33:28 51° E 03:36:48 10° NNE
Cosmos 44 Rocket 3.9 03:31:40 18° WSW 03:34:58 43° NW 03:39:31 10° NNE
Cosmos 1464 Rocket 4.1 03:29:18 10° N 03:35:42 86° E 03:42:05 10° S
Cosmos 2150 Rocket 4.1 03:34:03 10° NNW 03:39:24 66° WSW 03:44:47 10° S
Cosmos 1441 Rocket 3.3 03:36:23 10° N 03:40:21 81° E 03:44:17 10° SSE
Cosmos 2084 4.4 03:37:01 10° NNW 03:41:04 51° NE 03:45:17 10° SE
Cosmos 2098 Rocket 2.0 03:39:19 18° SSW 03:41:17 70° W 03:44:21 10° N
Cosmos 371 Rocket 3.8 03:42:03 10° NW 03:46:32 39° WSW 03:51:00 10° S
ISS -0.7 03:45:23 10° NNW 03:47:00 13° N 03:48:36 10° NNE
OPS 6432 4.3 03:45:58 10° NW 03:49:01 63° WSW 03:52:45 10° SSE
Helios 1A 4.2 03:46:57 15° SW 03:49:10 23° W 03:52:31 10° NW
Cosmos 773 Rocket 4.2 03:44:25 10° S 03:49:36 73° ESE 03:54:47 10° NNE
Cosmos 304 Rocket 3.8 03:48:27 10° NNW 03:53:08 56° WSW 03:57:47 10° S
IDEFIX/ARIANE 42P 4.2 03:50:47 10° NNW 03:54:29 20° WNW 03:58:09 10° WSW
USA 215 4.2 03:48:37 10° ENE 03:54:40 39° SE 04:00:42 10° SSW
IRS-P3 4.5 03:49:25 10° NNE 03:54:44 66° ESE 04:00:01 10° S
Okean 1 4.2 03:52:46 10° NNW 03:56:14 30° W 03:59:33 11° SSW
Cosmos 1356 3.4 03:54:39 10° NNW 03:57:51 53° W 04:01:02 10° S
Timation 2 Rocket 4.1 03:54:29 11° SSW 04:00:35 72° WNW 04:07:11 10° NNE
CZ-2C R/B 2.2 04:00:39 10° N 04:05:14 78° WNW 04:09:48 10° SSW
CZ-2C R/B 4.3 04:03:39 10° SE 04:08:49 41° ENE 04:14:03 10° N
CZ-2D R/B 4.0 04:05:51 10° NNE 04:10:02 62° E 04:14:17 10° S
Meteor 1-5 Rocket 4.4 04:06:55 10° SSW 04:12:03 51° WNW 04:17:13 10° N
Lacrosse 4 Rocket 2.0 04:09:50 10° NW 04:13:32 34° WSW 04:17:15 10° S
Meteor 1-14 Rocket 4.5 04:08:40 10° SSW 04:14:23 58° WNW 04:20:00 10° N
Cosmos 1743 3.7 04:14:18 10° SSE 04:17:56 48° E 04:21:35 10° NNE
ATLAS CENTAUR R/B 2.0 04:16:56 10° SW 04:21:33 58° NW 04:26:23 10° NNE
APEX 2.3 04:20:02 10° NNW 04:22:59 89° W 04:25:40 10° SSE
ARIANE 5 R/B 2.5 04:18:44 10° N 04:23:47 73° WNW 04:28:51 10° SSW
Cosmos 1633 Rocket 3.1 04:19:42 10° SSW 04:24:00 63° W 04:28:19 10° N
FENGYUN 3A 4.3 04:19:40 10° N 04:24:46 42° WNW 04:29:50 10° SW
Cosmos 158 Rocket 4.0 04:21:55 10° SSW 04:27:01 85° WNW 04:32:18 10° NNE
Envisat 4.2 04:22:24 10° NNE 04:27:16 44° E 04:32:05 10° S
